Location: Karcze
(52.0945°N, 22.4786°E)
Time: 07:37:24
(UTC+00:00)

Transit 2A Rocket - Pass Details

Date: 06 August 2021
Orbit: 586 x 917 km, 66.7° (Epoch: 24 September)

Event Time Altitude Azimuth Distance (km) Brightness Sun altitude
Rises 12:01:11 0° 219° (SW) 2,879 8.6 50.7°
Reaches altitude 10° 12:03:22 10° 220° (SW) 2,011 8.1 50.5°
Maximum altitude 12:07:54 84° 308° (NW) 680 5.7 50.1°
Drops below altitude 10° 12:12:55 10° 38° (NE) 2,214 7.1 49.6°
Sets 12:15:24 0° 40° (NE) 3,195 7.8 49.4°
